Погода в Линевом Озере

Россия / Забайкальский край     51°21′51″N   110°38′51″E
темп.,
°C
ветер,
м/с
пор.,
м/с
влажн.,
%
обл.,
%
осадки,
мм/ч
давл.,
гПа
погр.,
м
14 апреля, ср
ср1400:000з41265100 0.0 1012716
03:000зсз51270100 0.0 10121056
06:00−2зсз5118094 0.1 10131099
09:00−1зсз5863100 0.1 1015979
12:00+2сз5735100 0.0 10141623
15:00+4сз6726100 0.0 10122294
18:00+2ссз5728100 0.0 10122352
21:00−1ссз3942100 0.0 1014507
15 апреля, чт
чт1500:00−4зсз2859100 0.0 1016273
03:00−5зсз2869100 0.0 1015320
06:00−5з3967100 0.0 1014439
09:00−3зсз585935 0.0 1013859
12:00+2сз5827100 0.0 10102789
15:00+3сз5823100 0.0 10092945
18:00+3сз5628100 0.0 10102453
21:00−2сз256798 0.2 1013208
16 апреля, пт
пт1600:00−2зсз398498 0.9 1015780
03:00−5зсз498061 1.0 1018506
06:00−6зсз39877 0.0 1021417
09:00−3зсз47626 0.0 1022783
12:00+2зсз463227 0.0 10202022
15:00+5зсз57265 0.0 10182075
18:00+5зсз573238 0.0 10161876
21:000зюз22555 0.0 101812
17 апреля, сб
сб1700:00−2ююз22622 0.0 101924
03:00−3ююз22665 0.0 101831
06:00−4ю22655 0.0 101740
09:00+3ююз23425 0.0 1014261
12:00+11юз46285 0.0 10091473
15:00+14з46235 0.0 10062403
18:00+14з46245 0.0 10052600
21:00+6зюз22445 0.0 100712
18 апреля, вс
вс1800:00+3юз11534 0.0 100910
03:00+1ю22599 0.0 101015
06:000ююз1166100 0.0 101112
09:00+4ссз1149100 0.0 1011186
12:00+11всв123293 0.0 1008946
15:00+16ююв1323100 0.0 10042080
18:00+15ююв2323100 0.0 10022740
21:00+10юв1138100 0.0 100410